| time (UTC) | temp F | wind direction | speed MPH | gust MPH | rain 1hr in | rain 24hr in | rain mn in | humidity % | barometer mb |
| 20260507060037 | 56 | 52 | 1.0 | 4.0 | 0.00 | 0.00 | 0.00 | 69 | 1022.3 |
| 20260507053031 | 57 | 338 | 1.0 | 6.0 | 0.00 | 0.00 | 0.00 | 67 | 1022.5 |
| 20260507051534 | 58 | 266 | 5.0 | 11.0 | 0.00 | 0.00 | 0.00 | 65 | 1022.5 |
| 20260507050119 | 58 | 285 | 6.0 | 20.0 | 0.00 | 0.00 | 0.00 | 63 | 1022.4 |
| 20260507044607 | 58 | 296 | 5.0 | 13.0 | 0.00 | 0.00 | 0.00 | 62 | 1022.4 |
| 20260507043031 | 58 | 278 | 4.0 | 12.0 | 0.00 | 0.00 | 0.00 | 61 | 1022.3 |
| 20260507041531 | 59 | 247 | 4.0 | 11.0 | 0.00 | 0.00 | 0.00 | 60 | 1022.3 |
| 20260507040047 | 58 | 240 | 5.0 | 14.0 | 0.00 | 0.00 | 0.00 | 59 | 1022.2 |
| 20260507034537 | 59 | 214 | 2.0 | 11.0 | 0.00 | 0.00 | 0.00 | 57 | 1022.2 |
| 20260507031536 | 60 | 301 | 3.0 | 9.0 | 0.00 | 0.00 | 0.00 | 58 | 1022.1 |
| 20260507030038 | 61 | 273 | 5.0 | 18.0 | 0.00 | 0.00 | 0.00 | 57 | 1022.2 |
| 20260507023036 | 64 | 284 | 9.0 | 20.0 | 0.00 | 0.00 | 0.00 | 54 | 1022.1 |
| 20260507021538 | 65 | 282 | 8.0 | 18.0 | 0.00 | 0.00 | 0.00 | 51 | 1021.9 |
| 20260507020029 | 66 | 280 | 8.0 | 18.0 | 0.00 | 0.00 | 0.00 | 51 | 1021.8 |
| 20260507014528 | 67 | 273 | 8.0 | 17.0 | 0.00 | 0.00 | 0.00 | 49 | 1021.7 |
| 20260507013032 | 68 | 273 | 8.0 | 17.0 | 0.00 | 0.00 | 0.00 | 46 | 1021.6 |
| 20260507010036 | 68 | 276 | 8.0 | 18.0 | 0.00 | 0.00 | 0.00 | 44 | 1021.5 |
| 20260507004536 | 69 | 288 | 11.0 | 20.0 | 0.00 | 0.00 | 0.00 | 41 | 1021.4 |
| 20260507001532 | 70 | 276 | 9.0 | 20.0 | 0.00 | 0.00 | 0.00 | 41 | 1021.2 |
| 20260507000033 | 71 | 279 | 7.0 | 16.0 | 0.00 | 0.00 | 0.00 | 40 | 1021.1 |
| 20260506234607 | 71 | 288 | 9.0 | 20.0 | 0.00 | 0.00 | 0.00 | 38 | 1021.0 |
| 20260506230039 | 74 | 269 | 9.0 | 19.0 | 0.00 | 0.00 | 0.00 | 37 | 1021.1 |
| 20260506224534 | 74 | 277 | 7.0 | 18.0 | 0.00 | 0.00 | 0.00 | 37 | 1021.1 |
| 20260506223034 | 73 | 276 | 8.0 | 16.0 | 0.00 | 0.00 | 0.00 | 39 | 1021.3 |
| 20260506221544 | 72 | 267 | 9.0 | 21.0 | 0.00 | 0.00 | 0.00 | 40 | 1021.5 |
| 20260506220038 | 73 | 279 | 10.0 | 23.0 | 0.00 | 0.00 | 0.00 | 40 | 1021.3 |
| 20260506214537 | 73 | 293 | 9.0 | 19.0 | 0.00 | 0.00 | 0.00 | 41 | 1021.2 |
| 20260506213106 | 73 | 285 | 9.0 | 20.0 | 0.00 | 0.00 | 0.00 | 42 | 1021.2 |
| 20260506211608 | 73 | 291 | 7.0 | 18.0 | 0.00 | 0.00 | 0.00 | 43 | 1021.3 |
| 20260506210034 | 71 | 292 | 8.0 | 23.0 | 0.00 | 0.00 | 0.00 | 44 | 1021.4 |
| 20260506204528 | 72 | 281 | 9.0 | 19.0 | 0.00 | 0.00 | 0.00 | 44 | 1021.5 |
| 20260506203033 | 71 | 272 | 6.0 | 18.0 | 0.00 | 0.00 | 0.00 | 47 | 1021.4 |
| 20260506200028 | 71 | 268 | 5.0 | 13.0 | 0.00 | 0.00 | 0.00 | 47 | 1021.4 |
| 20260506194534 | 70 | 260 | 5.0 | 13.0 | 0.00 | 0.00 | 0.00 | 48 | 1021.5 |
| 20260506193034 | 71 | 268 | 4.0 | 12.0 | 0.00 | 0.00 | 0.00 | 49 | 1021.7 |
| 20260506191533 | 70 | 270 | 4.0 | 11.0 | 0.00 | 0.00 | 0.00 | 50 | 1021.7 |
| 20260506190034 | 69 | 297 | 8.0 | 16.0 | 0.00 | 0.00 | 0.00 | 49 | 1021.6 |
| 20260506184536 | 70 | 316 | 8.0 | 17.0 | 0.00 | 0.00 | 0.00 | 51 | 1021.3 |
| 20260506183144 | 69 | 316 | 4.0 | 11.0 | 0.00 | 0.00 | 0.00 | 53 | 1021.3 |
| 20260506181535 | 68 | 319 | 7.0 | 15.0 | 0.00 | 0.00 | 0.00 | 55 | 1021.5 |
| 20260506180036 | 69 | 334 | 7.0 | 15.0 | 0.00 | 0.00 | 0.00 | 53 | 1021.5 |
| 20260506174534 | 68 | 20 | 4.0 | 15.0 | 0.00 | 0.00 | 0.00 | 55 | 1021.4 |
| 20260506173034 | 67 | 5 | 3.0 | 8.0 | 0.00 | 0.00 | 0.00 | 56 | 1021.3 |
| 20260506171529 | 66 | 35 | 4.0 | 12.0 | 0.00 | 0.00 | 0.00 | 58 | 1021.3 |
| 20260506170150 | 66 | 1 | 3.0 | 11.0 | 0.00 | 0.00 | 0.00 | 59 | 1021.3 |
| 20260506164541 | 64 | 19 | 4.0 | 14.0 | 0.00 | 0.00 | 0.00 | 61 | 1021.4 |
| 20260506164531 | 63 | 323 | 6.0 | 11.0 | 0.00 | 0.00 | 0.00 | 63 | 1021.7 |
| 20260506161531 | 62 | 335 | 7.0 | 14.0 | 0.00 | 0.00 | 0.00 | 65 | 1021.8 |
| 20260506160034 | 61 | 339 | 6.0 | 13.0 | 0.00 | 0.00 | 0.00 | 67 | 1021.5 |
| 20260506154531 | 60 | 337 | 5.0 | 11.0 | 0.00 | 0.00 | 0.00 | 69 | 1021.7 |
| 20260506153031 | 61 | 352 | 2.0 | 7.0 | 0.00 | 0.00 | 0.00 | 68 | 1021.5 |
| 20260506151530 | 60 | 128 | 0.0 | 3.0 | 0.00 | 0.00 | 0.00 | 74 | 1021.4 |
| 20260506141531 | 47 | 120 | 2.0 | 4.0 | 0.00 | 0.00 | 0.00 | 95 | 1021.3 |
| 20260506140038 | 46 | 148 | 2.0 | 5.0 | 0.00 | 0.00 | 0.00 | 96 | 1021.2 |
| 20260506133035 | 44 | 155 | 3.0 | 5.0 | 0.00 | 0.00 | 0.00 | 96 | 1020.8 |
| 20260506131537 | 44 | 152 | 4.0 | 7.0 | 0.00 | 0.00 | 0.00 | 96 | 1020.8 |
| 20260506130107 | 44 | 157 | 3.0 | 5.0 | 0.00 | 0.00 | 0.00 | 96 | 1020.6 |
| 20260506124607 | 44 | 138 | 3.0 | 7.0 | 0.00 | 0.00 | 0.00 | 96 | 1020.5 |
| 20260506123031 | 44 | 152 | 4.0 | 7.0 | 0.00 | 0.00 | 0.00 | 96 | 1020.4 |
| 20260506121534 | 44 | 154 | 4.0 | 6.0 | 0.00 | 0.00 | 0.00 | 96 | 1020.2 |
| 20260506120035 | 44 | 150 | 4.0 | 6.0 | 0.00 | 0.00 | 0.00 | 96 | 1020.1 |
| 20260506114534 | 44 | 155 | 4.0 | 5.0 | 0.00 | 0.00 | 0.00 | 96 | 1020.0 |
| 20260506113104 | 44 | 156 | 3.0 | 5.0 | 0.00 | 0.00 | 0.00 | 96 | 1019.9 |
| 20260506111531 | 44 | 159 | 4.0 | 7.0 | 0.00 | 0.00 | 0.00 | 96 | 1019.7 |
| 20260506110031 | 44 | 157 | 5.0 | 6.0 | 0.00 | 0.00 | 0.00 | 96 | 1019.7 |
| 20260506104535 | 45 | 157 | 4.0 | 6.0 | 0.00 | 0.00 | 0.00 | 96 | 1019.5 |
| 20260506103032 | 45 | 157 | 4.0 | 5.0 | 0.00 | 0.00 | 0.00 | 96 | 1019.3 |
| 20260506101531 | 44 | 158 | 3.0 | 5.0 | 0.00 | 0.00 | 0.00 | 96 | 1019.3 |
| 20260506100057 | 45 | 157 | 3.0 | 5.0 | 0.00 | 0.00 | 0.00 | 96 | 1019.2 |
| 20260506093035 | 45 | 157 | 1.0 | 4.0 | 0.00 | 0.00 | 0.00 | 95 | 1019.2 |
| 20260506091533 | 45 | 154 | 3.0 | 4.0 | 0.00 | 0.00 | 0.00 | 95 | 1019.1 |
| 20260506090034 | 45 | 157 | 3.0 | 5.0 | 0.00 | 0.00 | 0.00 | 95 | 1019.1 |
| 20260506084531 | 46 | 157 | 3.0 | 4.0 | 0.00 | 0.00 | 0.00 | 95 | 1019.0 |
| 20260506083028 | 46 | 155 | 3.0 | 5.0 | 0.00 | 0.00 | 0.00 | 95 | 1018.9 |
| 20260506081534 | 46 | 157 | 3.0 | 4.0 | 0.00 | 0.00 | 0.00 | 94 | 1018.8 |
| 20260506080106 | 47 | 157 | 3.0 | 4.0 | 0.00 | 0.00 | 0.00 | 94 | 1018.7 |
| 20260506073033 | 47 | 146 | 1.0 | 4.0 | 0.00 | 0.00 | 0.00 | 93 | 1018.5 |
| 20260506071534 | 48 | 141 | 1.0 | 4.0 | 0.00 | 0.00 | 0.00 | 93 | 1018.5 |
| 20260506061534 | 50 | 157 | 3.0 | 4.0 | 0.00 | 0.00 | 0.00 | 92 | 1018.2 |